When you browse on this site, cookies collect data to enhance your experience and personalize the content and advertising you see.
Visit our Privacy Policy to learn more. By continuing to use the site, you agree to this use of cookies and data.
  • Em Portugal
  • Lista de países
  • Para 7 dias
  • Temperatura da água
  • Mapas de satélite
  • Mapa do tempo
  • Widgets de tempo
  • user-avatar
    Iniciar Sessão

    Previsão horária em Tibissa

    Hoje, 21 Fevereiro, Quinta-feira

    Tempo Temperatura Precipitação Vento Pressão Humidade
    00:00 +8°C° 0 mm 1 m/s 688 mmHg 69%
    01:00 +7°C° 0 mm 1 m/s 688 mmHg 72%
    02:00 +7°C° 0 mm 1 m/s 689 mmHg 76%
    03:00 +7°C° 0 mm 1 m/s 689 mmHg 79%
    04:00 +6°C° 0 mm 1 m/s 689 mmHg 83%
    05:00 +6°C° 0 mm 1 m/s 689 mmHg 85%
    06:00 +5°C° 0 mm 1 m/s 689 mmHg 88%
    07:00 +5°C° 0 mm 1 m/s 689 mmHg 90%
    08:00 +6°C° 0 mm 2 m/s 690 mmHg 81%
    09:00 +7°C° 0 mm 2 m/s 690 mmHg 72%
    10:00 +9°C° 0 mm 2 m/s 691 mmHg 63%
    11:00 +10°C° 0 mm 3 m/s 691 mmHg 56%
    12:00 +11°C° 0 mm 3 m/s 691 mmHg 49%
    13:00 +12°C° 0 mm 4 m/s 691 mmHg 42%
    14:00 +13°C° 0 mm 4 m/s 691 mmHg 41%
    15:00 +13°C° 0 mm 4 m/s 691 mmHg 39%
    16:00 +13°C° 0 mm 4 m/s 691 mmHg 38%
    17:00 +12°C° 0 mm 3 m/s 691 mmHg 44%
    18:00 +11°C° 0 mm 3 m/s 691 mmHg 49%
    19:00 +10°C° 0 mm 3 m/s 691 mmHg 54%
    20:00 +9°C° 0 mm 2 m/s 691 mmHg 60%
    21:00 +8°C° 0 mm 2 m/s 692 mmHg 66%
    22:00 +9°C° 0 mm 1 m/s 692 mmHg 72%
    23:00 +8°C° 0 mm 1 m/s 692 mmHg 76%

    Amanhã, 22 Fevereiro, Sexta-feira

    Tempo Temperatura Precipitação Vento Pressão Humidade
    00:00 +8°C° 0 mm 1 m/s 692 mmHg 81%
    01:00 +7°C° 0 mm 1 m/s 692 mmHg 85%
    02:00 +7°C° 0 mm 1 m/s 692 mmHg 88%
    03:00 +6°C° 0 mm 1 m/s 691 mmHg 91%
    04:00 +6°C° 0 mm 1 m/s 691 mmHg 93%
    05:00 +5°C° 0 mm 2 m/s 691 mmHg 94%
    06:00 +5°C° 0 mm 2 m/s 691 mmHg 95%
    07:00 +5°C° 0 mm 2 m/s 691 mmHg 95%
    08:00 +5°C° 0 mm 3 m/s 691 mmHg 83%
    09:00 +7°C° 0 mm 3 m/s 692 mmHg 70%
    10:00 +7°C° 0 mm 4 m/s 692 mmHg 58%
    11:00 +8°C° 0 mm 4 m/s 692 mmHg 51%
    12:00 +10°C° 0 mm 5 m/s 692 mmHg 45%
    13:00 +12°C° 0 mm 5 m/s 692 mmHg 38%
    14:00 +12°C° 0 mm 5 m/s 691 mmHg 38%
    15:00 +12°C° 0 mm 5 m/s 691 mmHg 37%
    16:00 +13°C° 0 mm 5 m/s 690 mmHg 37%
    17:00 +10°C° 0 mm 5 m/s 690 mmHg 44%
    18:00 +9°C° 0 mm 5 m/s 690 mmHg 51%
    19:00 +8°C° 0 mm 4 m/s 689 mmHg 59%
    20:00 +7°C° 0 mm 4 m/s 689 mmHg 66%
    21:00 +6°C° 0 mm 4 m/s 690 mmHg 74%
    22:00 +5°C° 0 mm 3 m/s 690 mmHg 82%
    23:00 +5°C° 0 mm 3 m/s 690 mmHg 84%

    Depois de amanhã, 23 Fevereiro, Sábado

    Tempo Temperatura Precipitação Vento Pressão Humidade
    00:00 +4°C° 0 mm 3 m/s 689 mmHg 87%
    01:00 +4°C° 0 mm 3 m/s 689 mmHg 89%
    02:00 +3°C° 0 mm 4 m/s 689 mmHg 90%
    03:00 +3°C° 0 mm 4 m/s 688 mmHg 92%
    04:00 +3°C° 0 mm 4 m/s 688 mmHg 93%
    05:00 +2°C° 0 mm 5 m/s 688 mmHg 92%
    06:00 +2°C° 0 mm 5 m/s 689 mmHg 91%
    07:00 +2°C° 0 mm 6 m/s 689 mmHg 91%
    08:00 +3°C° 0 mm 6 m/s 689 mmHg 86%
    09:00 +4°C° 0 mm 7 m/s 689 mmHg 82%
    10:00 +5°C° 0 mm 7 m/s 690 mmHg 77%
    11:00 +5°C° 0 mm 7 m/s 690 mmHg 74%
    12:00 +6°C° 0 mm 7 m/s 690 mmHg 71%
    13:00 +8°C° 0 mm 7 m/s 690 mmHg 67%
    14:00 +7°C° 0 mm 8 m/s 689 mmHg 63%
    15:00 +8°C° 0 mm 9 m/s 689 mmHg 60%
    16:00 +9°C° 0 mm 10 m/s 689 mmHg 56%
    17:00 +7°C° 0 mm 10 m/s 689 mmHg 63%
    18:00 +6°C° 0 mm 9 m/s 689 mmHg 71%
    19:00 +5°C° 0 mm 9 m/s 689 mmHg 79%
    20:00 +3°C° 0 mm 9 m/s 689 mmHg 82%
    21:00 +4°C° 0 mm 8 m/s 689 mmHg 86%
    22:00 +3°C° 0 mm 7 m/s 690 mmHg 89%
    23:00 +3°C° 0 mm 7 m/s 689 mmHg 91%

    24 Fevereiro, Domingo

    Tempo Temperatura Precipitação Vento Pressão Humidade
    00:00 +2°C° 0 mm 8 m/s 689 mmHg 93%
    01:00 +1°C° 0 mm 8 m/s 689 mmHg 94%
    02:00 +2°C° 0.1 mm 9 m/s 689 mmHg 93%
    03:00 +2°C° 0.1 mm 10 m/s 689 mmHg 92%
    04:00 +2°C° 0.1 mm 10 m/s 689 mmHg 90%
    05:00 +2°C° 0.1 mm 11 m/s 689 mmHg 90%
    06:00 +2°C° 0.1 mm 11 m/s 689 mmHg 89%
    07:00 +2°C° 0.1 mm 12 m/s 689 mmHg 88%
    08:00 +2°C° 0 mm 12 m/s 689 mmHg 80%
    09:00 +3°C° 0 mm 12 m/s 690 mmHg 71%
    10:00 +3°C° 0 mm 12 m/s 690 mmHg 63%
    11:00 +3°C° 0 mm 11 m/s 690 mmHg 62%
    12:00 +4°C° 0 mm 11 m/s 690 mmHg 61%
    13:00 +5°C° 0 mm 10 m/s 690 mmHg 60%
    14:00 +5°C° 0 mm 10 m/s 690 mmHg 62%
    15:00 +3°C° 0 mm 10 m/s 690 mmHg 63%
    16:00 +3°C° 0 mm 10 m/s 690 mmHg 65%
    17:00 +3°C° 0 mm 10 m/s 690 mmHg 68%
    18:00 +2°C° 0 mm 10 m/s 690 mmHg 72%
    19:00 +1°C° 0 mm 10 m/s 690 mmHg 76%
    20:00 0°C° 0 mm 9 m/s 691 mmHg 79%
    21:00 0°C° 0 mm 9 m/s 691 mmHg 82%
    22:00 -1°C° 0 mm 9 m/s 691 mmHg 85%
    23:00 -1°C° 0 mm 9 m/s 691 mmHg 85%

    25 Fevereiro, Segunda-feira

    Tempo Temperatura Precipitação Vento Pressão Humidade
    00:00 -1°C° 0 mm 9 m/s 691 mmHg 85%
    01:00 -1°C° 0 mm 9 m/s 691 mmHg 85%
    02:00 -1°C° 0 mm 8 m/s 691 mmHg 85%
    03:00 -1°C° 0 mm 8 m/s 690 mmHg 85%
    04:00 -1°C° 0 mm 8 m/s 690 mmHg 85%
    05:00 -2°C° 0 mm 8 m/s 690 mmHg 86%
    06:00 -2°C° 0 mm 7 m/s 690 mmHg 86%
    07:00 -2°C° 0 mm 7 m/s 690 mmHg 86%
    08:00 -1°C° 0 mm 8 m/s 690 mmHg 82%
    09:00 +1°C° 0 mm 9 m/s 691 mmHg 78%
    10:00 +2°C° 0 mm 10 m/s 691 mmHg 74%
    11:00 +3°C° 0 mm 10 m/s 691 mmHg 67%
    12:00 +6°C° 0 mm 9 m/s 691 mmHg 61%
    13:00 +7°C° 0 mm 9 m/s 691 mmHg 55%
    14:00 +7°C° 0 mm 9 m/s 690 mmHg 57%
    15:00 +7°C° 0 mm 8 m/s 690 mmHg 58%
    16:00 +7°C° 0 mm 8 m/s 690 mmHg 60%
    17:00 +6°C° 0 mm 7 m/s 690 mmHg 66%
    18:00 +5°C° 0 mm 7 m/s 690 mmHg 72%
    19:00 +4°C° 0 mm 6 m/s 690 mmHg 78%
    20:00 +5°C° 0 mm 5 m/s 690 mmHg 82%
    21:00 +3°C° 0 mm 5 m/s 690 mmHg 87%
    22:00 +4°C° 0 mm 4 m/s 691 mmHg 92%
    23:00 +3°C° 0 mm 4 m/s 690 mmHg 93%

    26 Fevereiro, Terça-feira

    Tempo Temperatura Precipitação Vento Pressão Humidade
    00:00 +3°C° 0 mm 3 m/s 690 mmHg 94%
    01:00 +2°C° 0 mm 3 m/s 690 mmHg 94%
    02:00 +2°C° 0 mm 3 m/s 690 mmHg 95%
    03:00 +2°C° 0 mm 3 m/s 690 mmHg 95%
    04:00 +2°C° 0 mm 3 m/s 690 mmHg 95%
    05:00 +2°C° 0 mm 3 m/s 690 mmHg 95%
    06:00 +2°C° 0 mm 3 m/s 690 mmHg 95%
    07:00 +1°C° 0 mm 3 m/s 690 mmHg 95%
    08:00 +3°C° 0 mm 3 m/s 691 mmHg 87%
    09:00 +5°C° 0 mm 4 m/s 691 mmHg 78%
    10:00 +6°C° 0 mm 4 m/s 692 mmHg 70%
    11:00 +7°C° 0 mm 4 m/s 692 mmHg 65%
    12:00 +8°C° 0 mm 4 m/s 692 mmHg 60%
    13:00 +10°C° 0 mm 4 m/s 692 mmHg 55%
    14:00 +11°C° 0 mm 4 m/s 692 mmHg 54%
    15:00 +11°C° 0 mm 4 m/s 691 mmHg 53%
    16:00 +10°C° 0 mm 5 m/s 691 mmHg 52%
    17:00 +10°C° 0 mm 4 m/s 691 mmHg 58%
    18:00 +9°C° 0 mm 3 m/s 691 mmHg 64%
    19:00 +8°C° 0 mm 3 m/s 691 mmHg 70%
    20:00 +8°C° 0 mm 2 m/s 691 mmHg 75%
    21:00 +8°C° 0 mm 1 m/s 691 mmHg 79%
    22:00 +7°C° 0 mm 1 m/s 692 mmHg 84%
    23:00 +7°C° 0 mm 1 m/s 691 mmHg 86%
    Mostrar mais